Regional Weather Roundup
Issued by NWS

Home | Current Version | Previous Version | Text Only | Print | Product List | Glossary On
Versions: 1 2 3 4 5 6 7 8 9 10 11 12 13 14 15 16 17 18 19 20 21 22 23 24 25 26 27 28 29 30 31 32 33 34 35 36 37 38 39 40 41 42 43 44 45 46 47 48 49 50
585
ASUS43 KLMK 181410
RWRKY
KENTUCKY REGIONAL WEATHER ROUNDUP
NATIONAL WEATHER SERVICE LOUISVILLE KY
900 AM EST WED JAN 18 2017

NOTE "FAIR" INDICATES FEW OR NO CLOUDS BELOW 12,000 FEET
WITH NO SIGNIFICANT WEATHER AND/OR OBSTRUCTIONS TO VISIBILITY.

KYZ001>023-026-027-061>063-070>075-181500-
WESTERN AND SOUTH CENTRAL KENTUCKY

CITY           SKY/WX    TMP DP  RH WIND       PRES   REMARKS
PADUCAH        CLOUDY    42  36  79 N7        30.23R
HENDERSON      CLOUDY    39  34  81 W7        30.25R WCI  34
OWENSBORO      CLOUDY    41  36  82 W5        30.25R
HOPKINSVILLE   CLOUDY    44  40  88 N5        30.22R
BOWLING GREEN  CLOUDY    45  39  79 N3        30.23R
GLASGOW        CLOUDY    43  37  81 W3        30.23R
$$

KYZ024-025-028>034-038-045-046-053-181500-
NORTH CENTRAL KENTUCKY

CITY           SKY/WX    TMP DP  RH WIND       PRES   REMARKS
LOUISVILLE/SDF CLOUDY    42  37  82 W8        30.22R
LOUISVILLE/LOU CLOUDY    42  36  79 W7        30.22R
FORT KNOX      CLOUDY    40  36  85 W3        30.20R
$$

KYZ035>037-039>044-047>052-055>060-089>105-181500-
NORTHEAST KENTUCKY

CITY           SKY/WX    TMP DP  RH WIND       PRES   REMARKS
LEXINGTON      CLOUDY    41  36  82 W7        30.19R
COVINGTON      DRIZZLE   37  36  96 W8        30.18R FOG     WCI  31
FRANKFORT      CLOUDY    42  34  73 W3        30.19R
$$

KYZ054-064>069-076>088-106>120-181500-
SOUTHEAST KENTUCKY

CITY           SKY/WX    TMP DP  RH WIND       PRES   REMARKS
JACKSON        CLOUDY    41  37  86 W7        30.18R
LONDON         CLOUDY    42  37  82 W6        30.20R
SOMERSET       CLOUDY    41  36  81 W3        30.23R
MIDDLESBORO    CLOUDY    47  43  85 NW7       30.20R
MONTICELLO     CLOUDY    42  40  92 N13       30.24R
$$





USA.gov is the U.S. government's official web portal to all federal, state and local government web resources and services.